Change the Weather History Date:

Wednesday, March 19, 2014

  Actual Average Record
Temperature  
Mean Temperature 37 °F 37 °F  
Max Temperature 44 °F 45 °F 82 °F (1898)
Min Temperature 30 °F 29 °F 1 °F (1967)
Degree Days  
Heating Degree Days 28 28  
Month to date heating degree days 698 601  
Since 1 July heating degree days 6026 5480  
Cooling Degree Days 0 0  
Month to date cooling degree days 0 0  
Year to date cooling degree days 0 0  
Moisture  
Dew Point 30 °F    
Average Humidity 74    
Maximum Humidity 85    
Minimum Humidity 63    
Precipitation  
Precipitation 0.06 in 0.11 in 1.27 in (1907)
Month to date precipitation 1.06 1.76  
Year to date precipitation 5.10 6.99  
Sea Level Pressure  
Sea Level Pressure 29.93 in    
Wind  
Wind Speed 11 mph (SSE)    
Max Wind Speed 24 mph    
Max Gust Speed 34 mph    
Visibility 9 miles    
Events Rain    
T = Trace of Precipitation, MM = Missing Value Source: NWS Daily Summary

Daily Weather History Graph

Daily Weather History Graph

Search for Another Location

Airport or City:

Trip Planner

Search our weather history database for the weather conditions in past years. The results will help you decide how hot, cold, wet, or windy it might be!

Date:

Astronomy

Mar. 19, 2014 Rise Set
Actual Time 7:20 AM EDT 7:26 PM EDT
Civil Twilight 6:53 AM EDT 7:53 PM EDT
Nautical Twilight 6:21 AM EDT 8:25 PM EDT
Astronomical Twilight 5:49 AM EDT 8:57 PM EDT
Moon 10:43 PM EDT (3/19) 8:44 AM EDT (3/19)
Length of Visible Light 13h 00m
Length of Day
12h 05m
Waning Gibbous, 91% of the Moon is Illuminated
Mar 19
Waning Gibbous
Mar 23
Last Quarter
Mar 30
New
Apr 7
First Quarter
Apr 15
Full

Hourly Weather History & Observations

Time (EDT) Temp. Windchill Dew Point Humidity Pressure Visibility Wind Dir Wind Speed Gust Speed Precip Events Conditions
12:54 AM 30.9 °F 20.7 °F 21.0 °F 67% 30.11 in 10.0 mi SSE 13.8 mph 23.0 mph N/A   Overcast
1:54 AM 30.9 °F 19.8 °F 21.0 °F 67% 30.12 in 10.0 mi SSE 16.1 mph 21.9 mph N/A   Overcast
2:38 AM 30.9 °F 22.2 °F 19.9 °F 64% 30.04 in 10.0 mi SSE 10.4 mph 23.0 mph N/A   Scattered Clouds
2:54 AM 30.9 °F 20.7 °F 19.9 °F 64% 30.10 in 10.0 mi South 13.8 mph - N/A   Clear
3:20 AM 30.9 °F 20.7 °F 19.9 °F 64% 30.04 in 10.0 mi South 13.8 mph 19.6 mph N/A   Mostly Cloudy
3:54 AM 30.0 °F 21.1 °F 19.0 °F 64% 30.09 in 10.0 mi South 10.4 mph 19.6 mph N/A   Overcast
4:54 AM 30.9 °F 21.7 °F 19.0 °F 61% 30.09 in 10.0 mi South 11.5 mph - N/A   Overcast
5:54 AM 30.9 °F 20.7 °F 19.0 °F 61% 30.08 in 10.0 mi SSE 13.8 mph - N/A   Overcast
6:54 AM 30.9 °F 23.5 °F 19.9 °F 64% 30.08 in 10.0 mi SSE 8.1 mph - N/A   Overcast
7:54 AM 33.1 °F 27.7 °F 24.1 °F 70% 30.07 in 10.0 mi SSE 5.8 mph - N/A   Overcast
8:24 AM 34.0 °F 26.0 °F 25.0 °F 70% 30.00 in 10.0 mi SSE 10.4 mph - N/A   Scattered Clouds
8:32 AM 34.0 °F 26.0 °F 25.0 °F 70% 30.00 in 10.0 mi SSE 10.4 mph 23.0 mph N/A   Mostly Cloudy
8:54 AM 34.0 °F 24.6 °F 25.0 °F 70% 30.06 in 10.0 mi SSE 13.8 mph - N/A   Overcast
9:54 AM 36.0 °F 26.3 °F 27.0 °F 70% 30.05 in 10.0 mi SSE 16.1 mph 21.9 mph N/A   Overcast
10:54 AM 37.0 °F 31.0 °F 28.9 °F 73% 30.04 in 10.0 mi SE 8.1 mph 18.4 mph N/A   Overcast
11:54 AM 36.0 °F 29.6 °F 30.0 °F 79% 30.03 in 10.0 mi SE 8.1 mph - N/A   Overcast
12:04 PM 36.0 °F 29.6 °F 30.0 °F 79% 29.97 in 10.0 mi SE 8.1 mph - N/A   Overcast
12:54 PM 36.0 °F 28.0 °F 30.9 °F 82% 30.01 in 10.0 mi SSE 11.5 mph - N/A   Overcast
1:03 PM 36.0 °F 28.0 °F 30.9 °F 82% 29.95 in 10.0 mi SE 11.5 mph - N/A   Overcast
1:54 PM 35.1 °F 25.5 °F 30.9 °F 85% 29.97 in 10.0 mi SE 15.0 mph 19.6 mph N/A   Overcast
2:54 PM 37.0 °F 30.4 °F 33.1 °F 86% 29.92 in 10.0 mi SE 9.2 mph - N/A   Overcast
3:54 PM 37.0 °F 31.0 °F 34.0 °F 89% 29.88 in 10.0 mi SE 8.1 mph - N/A   Overcast
4:54 PM 37.0 °F 31.6 °F 34.0 °F 89% 29.85 in 10.0 mi ESE 6.9 mph - N/A   Overcast
5:54 PM 37.0 °F 31.6 °F 35.1 °F 93% 29.84 in 10.0 mi SE 6.9 mph - 0.00 in Rain Light Rain
6:54 PM 37.0 °F 31.6 °F 35.1 °F 93% 29.85 in 10.0 mi SSE 6.9 mph - 0.00 in   Overcast
7:18 PM 36.0 °F 32.1 °F 35.1 °F 97% 29.79 in 5.0 mi SSE 4.6 mph - 0.00 in Rain Light Rain
7:54 PM 36.0 °F 30.3 °F 35.1 °F 97% 29.85 in 3.0 mi SE 6.9 mph - 0.05 in Rain Light Rain
8:03 PM 36.0 °F 29.6 °F 35.1 °F 97% 29.78 in 2.5 mi SE 8.1 mph - 0.00 in Rain Light Rain
8:12 PM 35.1 °F 31.0 °F 35.1 °F 100% 29.79 in 3.0 mi SSE 4.6 mph - 0.00 in   Overcast
8:22 PM 35.1 °F 28.6 °F 35.1 °F 100% 29.79 in 4.0 mi South 8.1 mph - 0.00 in   Overcast
8:35 PM 36.0 °F 30.3 °F 35.1 °F 97% 29.78 in 7.0 mi South 6.9 mph - 0.00 in   Overcast
8:45 PM 36.0 °F 30.3 °F 36.0 °F 100% 29.78 in 9.0 mi South 6.9 mph - 0.00 in   Overcast
8:54 PM 36.0 °F 29.6 °F 35.1 °F 97% 29.83 in 10.0 mi South 8.1 mph - 0.00 in Rain Light Rain
9:54 PM 39.0 °F 34.0 °F 37.0 °F 93% 29.81 in 10.0 mi South 6.9 mph - 0.00 in Rain Light Rain
10:19 PM 41.0 °F 35.8 °F 37.9 °F 89% 29.76 in 10.0 mi SSW 8.1 mph - 0.00 in   Overcast
10:41 PM 41.0 °F 36.4 °F 37.9 °F 89% 29.76 in 10.0 mi SW 6.9 mph - 0.00 in   Overcast
10:54 PM 41.0 °F 35.8 °F 37.9 °F 89% 29.80 in 10.0 mi SW 8.1 mph - 0.00 in   Mostly Cloudy
11:26 PM 42.1 °F 35.7 °F 39.0 °F 89% 29.75 in 10.0 mi WSW 11.5 mph - N/A   Overcast
11:54 PM 44.1 °F 36.8 °F 39.9 °F 85% 29.79 in 10.0 mi WSW 16.1 mph 24.2 mph 0.01 in   Overcast